| time (UTC) | temp F | wind direction | speed knots | gust knots | rain 1hr in | rain 24hr in | rain mn in | humidity % | barometer mb |
| 20260503200023 | 58 | 207 | 8.7 | 14.8 | 0.00 | 0.00 | 0.00 | 26 | 1014.5 |
| 20260503194534 | 57 | 256 | 9.6 | 14.8 | 0.00 | 0.00 | 0.00 | 26 | 1014.7 |
| 20260503193021 | 57 | 243 | 12.2 | 16.5 | 0.00 | 0.00 | 0.00 | 24 | 1014.8 |
| 20260503191517 | 57 | 360 | 13.0 | 18.2 | 0.00 | 0.00 | 0.00 | 25 | 1015.1 |
| 20260503190023 | 56 | 277 | 10.4 | 17.4 | 0.00 | 0.00 | 0.00 | 27 | 1015.4 |
| 20260503184522 | 57 | 280 | 8.7 | 18.2 | 0.00 | 0.00 | 0.00 | 26 | 1015.5 |
| 20260503183010 | 56 | 279 | 7.8 | 17.4 | 0.00 | 0.00 | 0.00 | 27 | 1015.8 |
| 20260503181509 | 55 | 298 | 7.8 | 15.6 | 0.00 | 0.00 | 0.00 | 28 | 1015.7 |
| 20260503180008 | 55 | 267 | 7.0 | 10.4 | 0.00 | 0.00 | 0.00 | 28 | 1016.0 |
| 20260503174505 | 55 | 212 | 7.8 | 13.0 | 0.00 | 0.00 | 0.00 | 27 | 1016.1 |
| 20260503173004 | 53 | 265 | 8.7 | 20.0 | 0.00 | 0.00 | 0.00 | 28 | 1016.5 |
| 20260503171503 | 53 | 302 | 9.6 | 18.2 | 0.00 | 0.00 | 0.00 | 30 | 1016.5 |
| 20260503081524 | 35 | 282 | 2.6 | 4.3 | 0.00 | 0.00 | 0.00 | 69 | 1016.5 |
| 20260503071505 | 36 | 284 | 1.7 | 3.5 | 0.00 | 0.00 | 0.00 | 68 | 1016.2 |
| 20260503060118 | 36 | 325 | 0.9 | 2.6 | 0.00 | 0.00 | 0.00 | 67 | 1016.2 |
| 20260503054613 | 36 | 325 | 0.9 | 2.6 | 0.00 | 0.00 | 0.00 | 67 | 1016.3 |
| 20260503053055 | 36 | 325 | 0.0 | 2.6 | 0.00 | 0.00 | 0.00 | 67 | 1016.5 |
| 20260503051553 | 36 | 325 | 0.9 | 2.6 | 0.00 | 0.00 | 0.00 | 67 | 1016.6 |
| 20260503050053 | 36 | 327 | 0.9 | 2.6 | 0.00 | 0.00 | 0.00 | 67 | 1016.6 |
| 20260503044552 | 36 | 327 | 1.7 | 3.5 | 0.00 | 0.00 | 0.00 | 67 | 1016.6 |
| 20260503043050 | 37 | 333 | 1.7 | 3.5 | 0.00 | 0.00 | 0.00 | 66 | 1016.6 |
| 20260503041549 | 37 | 333 | 0.9 | 2.6 | 0.00 | 0.00 | 0.00 | 66 | 1016.7 |
| 20260503040045 | 37 | 333 | 0.0 | 2.6 | 0.00 | 0.00 | 0.00 | 66 | 1016.6 |
| 20260503034544 | 37 | 333 | 0.0 | 1.7 | 0.00 | 0.00 | 0.00 | 66 | 1016.7 |
| 20260503033044 | 37 | 333 | 0.9 | 2.6 | 0.00 | 0.00 | 0.00 | 66 | 1016.7 |
| 20260503031546 | 37 | 333 | 1.7 | 2.6 | 0.00 | 0.00 | 0.00 | 65 | 1016.5 |
| 20260503030047 | 38 | 333 | 1.7 | 3.5 | 0.00 | 0.00 | 0.00 | 64 | 1016.6 |
| 20260503024541 | 38 | 333 | 0.0 | 3.5 | 0.00 | 0.00 | 0.00 | 63 | 1016.8 |
| 20260503023040 | 38 | 334 | 0.9 | 2.6 | 0.00 | 0.00 | 0.00 | 63 | 1017.0 |
| 20260503021542 | 39 | 334 | 1.7 | 3.5 | 0.00 | 0.00 | 0.00 | 63 | 1017.0 |
| 20260503020039 | 39 | 332 | 0.0 | 3.5 | 0.00 | 0.00 | 0.00 | 63 | 1016.8 |
| 20260503014537 | 39 | 333 | 0.9 | 3.5 | 0.00 | 0.00 | 0.00 | 62 | 1016.8 |
| 20260503013037 | 39 | 334 | 0.9 | 2.6 | 0.00 | 0.00 | 0.00 | 62 | 1016.8 |
| 20260503011536 | 39 | 334 | 0.0 | 3.5 | 0.00 | 0.00 | 0.00 | 63 | 1016.7 |
| 20260503010037 | 39 | 336 | 0.9 | 3.5 | 0.00 | 0.00 | 0.00 | 63 | 1016.7 |
| 20260503004534 | 40 | 338 | 0.0 | 4.3 | 0.00 | 0.00 | 0.00 | 63 | 1016.5 |
| 20260503003036 | 40 | 346 | 0.0 | 2.6 | 0.00 | 0.00 | 0.00 | 63 | 1016.3 |
| 20260503001532 | 40 | 346 | 0.9 | 2.6 | 0.00 | 0.00 | 0.00 | 62 | 1016.3 |
| 20260503000033 | 40 | 346 | 0.9 | 3.5 | 0.00 | 0.00 | 0.00 | 62 | 1016.1 |
| 20260502234546 | 40 | 346 | 1.7 | 3.5 | 0.00 | 0.01 | 0.00 | 61 | 1016.1 |
| 20260502233029 | 40 | 345 | 1.7 | 4.3 | 0.00 | 0.01 | 0.00 | 60 | 1015.9 |
| 20260502231529 | 41 | 343 | 2.6 | 8.7 | 0.00 | 0.01 | 0.00 | 60 | 1015.8 |
| 20260502230029 | 41 | 5 | 3.5 | 9.6 | 0.00 | 0.01 | 0.00 | 59 | 1016.0 |
| 20260502224528 | 41 | 327 | 2.6 | 7.8 | 0.00 | 0.04 | 0.00 | 60 | 1016.0 |
| 20260502223028 | 41 | 355 | 2.6 | 9.6 | 0.00 | 0.04 | 0.00 | 60 | 1016.0 |
| 20260502221528 | 41 | 320 | 4.3 | 8.7 | 0.00 | 0.04 | 0.00 | 61 | 1015.9 |
| 20260502220026 | 41 | 306 | 3.5 | 11.3 | 0.00 | 0.04 | 0.00 | 61 | 1016.0 |
| 20260502214538 | 42 | 5 | 3.5 | 8.7 | 0.00 | 0.04 | 0.00 | 62 | 1016.0 |
| 20260502213025 | 42 | 347 | 3.5 | 10.4 | 0.00 | 0.04 | 0.00 | 62 | 1015.8 |
| 20260502211533 | 41 | 355 | 2.6 | 8.7 | 0.00 | 0.04 | 0.00 | 63 | 1015.7 |
| 20260502210026 | 41 | 321 | 1.7 | 7.8 | 0.00 | 0.04 | 0.00 | 64 | 1015.6 |
| 20260502204523 | 41 | 355 | 0.9 | 7.0 | 0.00 | 0.09 | 0.00 | 65 | 1015.6 |
| 20260502203022 | 41 | 360 | 4.3 | 9.6 | 0.00 | 0.09 | 0.00 | 64 | 1015.7 |
| 20260502201522 | 41 | 331 | 3.5 | 8.7 | 0.00 | 0.09 | 0.00 | 63 | 1015.6 |